Indianapolis, IN

8:11 PM EST on November 15, 2019 (GMT -0500)
Indianapolis Terry

Weather History for KTYQ - June, 2019

Change the Weather History Date:

Tuesday, June 4, 2019

  Actual Average (WUND) Record (WUND)
Temperature  
Mean Temperature 66 °F -  
Max Temperature 78 °F - - (-1)
Min Temperature 54 °F - - (-1)
Cooling Degree Days 1    
Growing Degree Days 16 (Base 50)    
Moisture  
Dew Point 54 °F    
Average Humidity 69    
Maximum Humidity 100    
Minimum Humidity 39    
Precipitation  
Precipitation 0.00 in - - ()
Sea Level Pressure  
Sea Level Pressure 30.03 in    
Wind  
Wind Speed 5 mph ()    
Max Wind Speed 17 mph    
Max Gust Speed 23 mph    
Visibility 10.0 miles    
Events      
Averages and records for this station are not official NWS values.
T = Trace of Precipitation, MM = Missing Value Source: Averaged Metar Reports

Daily Weather History Graph

Daily Weather History Graph

Search for Another Location

Airport or City:

Astronomy

Jun. 04, 2019 Rise Set
Actual Time 6:17 AM EDT 9:09 PM EDT
Civil Twilight 5:44 AM EDT 9:42 PM EDT
Nautical Twilight 5:04 AM EDT 10:23 PM EDT
Astronomical Twilight 4:17 AM EDT 11:10 PM EDT
Moon 7:25 AM EDT (6/4) 10:37 PM EDT (6/4)
Length of Visible Light 15h 57m
Length of Day
14h 52m
New Moon, 2% of the Moon is Illuminated
Jun 4
New Moon
Jun 10
First Quarter
Jun 17
Full
Jun 25
Last Quarter
Jul 2
New

Hourly Weather History & Observations

Time (EDT) Temp. Dew Point Humidity Pressure Visibility Wind Dir Wind Speed Gust Speed Precip Events Conditions
12:15 AM 58.3 °F 58.3 °F 100% 30.12 in 10.0 mi Calm Calm - N/A   Clear
12:35 AM 58.5 °F 58.5 °F 100% 30.11 in 10.0 mi Calm Calm - N/A   Clear
12:55 AM 56.8 °F 56.8 °F 100% 30.11 in 10.0 mi SW 4.6 mph - N/A   Clear
1:15 AM 57.4 °F 57.4 °F 100% 30.11 in 10.0 mi Calm Calm - N/A   Clear
1:35 AM 56.3 °F 56.3 °F 100% 30.11 in 10.0 mi Calm Calm - N/A   Clear
1:55 AM 57.0 °F 56.3 °F 97% 30.11 in 10.0 mi Calm Calm - N/A   Clear
2:15 AM 55.6 °F 55.6 °F 100% 30.11 in 10.0 mi Calm Calm - N/A   Clear
2:35 AM 55.4 °F 55.4 °F 100% 30.11 in 10.0 mi Calm Calm - N/A   Clear
2:55 AM 55.2 °F 55.2 °F 100% 30.11 in 10.0 mi Calm Calm - N/A   Clear
3:15 AM 55.4 °F 55.4 °F 100% 30.11 in 10.0 mi Calm Calm - N/A   Clear
3:35 AM 54.3 °F 54.3 °F 100% 30.11 in 10.0 mi Calm Calm - N/A   Clear
3:55 AM 54.5 °F 54.5 °F 100% 30.11 in 10.0 mi Calm Calm - N/A   Clear
4:15 AM 55.9 °F 55.9 °F 100% 30.11 in 10.0 mi Calm Calm - N/A   Clear
4:35 AM 54.9 °F 54.9 °F 100% 30.11 in 10.0 mi Calm Calm - N/A   Clear
4:55 AM 55.6 °F 55.6 °F 100% 30.11 in 10.0 mi Calm Calm - N/A   Clear
5:15 AM 55.9 °F 55.9 °F 100% 30.10 in 10.0 mi Calm Calm - N/A   Clear
5:35 AM 56.5 °F 56.5 °F 100% 30.10 in 10.0 mi Calm Calm - N/A   Clear
5:55 AM 56.3 °F 56.3 °F 100% 30.11 in 10.0 mi Calm Calm - N/A   Clear
6:15 AM 56.3 °F 56.3 °F 100% 30.10 in 10.0 mi Calm Calm - N/A   Scattered Clouds
6:35 AM 56.7 °F 56.7 °F 100% 30.11 in 10.0 mi Calm Calm - N/A   Mostly Cloudy
6:55 AM 56.5 °F 56.5 °F 100% 30.11 in 10.0 mi Calm Calm - N/A   Scattered Clouds
7:15 AM 57.2 °F 57.2 °F 100% 30.11 in 10.0 mi Calm Calm - N/A   Clear
7:35 AM 57.4 °F 57.4 °F 100% 30.11 in 10.0 mi Calm Calm - N/A   Clear
7:55 AM 58.3 °F 58.3 °F 100% 30.11 in 10.0 mi Calm Calm - N/A   Clear
8:15 AM 60.3 °F 58.8 °F 95% 30.11 in 10.0 mi SSE 3.5 mph - N/A   Clear
8:35 AM 61.3 °F 57.9 °F 89% 30.11 in 10.0 mi SSE 4.6 mph - N/A   Clear
8:55 AM 62.1 °F 58.1 °F 87% 30.10 in 10.0 mi South 4.6 mph - N/A   Clear
9:15 AM 64.4 °F 56.5 °F 75% 30.09 in 10.0 mi South 5.8 mph - N/A   Clear
9:35 AM 64.8 °F 56.5 °F 74% 30.09 in 10.0 mi South 4.6 mph - N/A   Clear
9:55 AM 67.3 °F 55.9 °F 67% 30.09 in 10.0 mi South 6.9 mph - N/A   Clear
10:15 AM 69.1 °F 55.9 °F 63% 30.09 in 10.0 mi South 10.4 mph - N/A   Clear
10:35 AM 69.4 °F 53.1 °F 56% 30.08 in 10.0 mi SSW 11.5 mph - N/A   Clear
10:55 AM 70.9 °F 53.2 °F 54% 30.08 in 10.0 mi South 13.8 mph - N/A   Clear
11:15 AM 71.6 °F 51.8 °F 50% 30.08 in 10.0 mi South 11.5 mph 18.4 mph N/A   Clear
11:35 AM 73.2 °F 52.5 °F 48% 30.07 in 10.0 mi South 11.5 mph - N/A   Clear
11:55 AM 73.9 °F 53.1 °F 48% 30.07 in 10.0 mi South 12.7 mph - N/A   Clear
12:15 PM 74.1 °F 52.9 °F 47% 30.07 in 10.0 mi South 13.8 mph - N/A   Clear
12:35 PM 74.7 °F 53.1 °F 47% 30.06 in 10.0 mi South 15.0 mph - N/A   Clear
12:55 PM 75.2 °F 52.7 °F 45% 30.06 in 10.0 mi South 15.0 mph 20.7 mph N/A   Clear
1:15 PM 75.7 °F 52.9 °F 45% 30.05 in 10.0 mi SSW 12.7 mph 21.9 mph N/A   Clear
1:35 PM 76.1 °F 52.5 °F 44% 30.04 in 10.0 mi South 15.0 mph 19.6 mph N/A   Clear
1:55 PM 76.5 °F 52.2 °F 43% 30.03 in 10.0 mi South 17.3 mph 20.7 mph N/A   Clear
2:15 PM 77.2 °F 52.7 °F 42% 30.02 in 10.0 mi SSW 15.0 mph 23.0 mph N/A   Clear
2:35 PM 77.2 °F 52.0 °F 41% 30.01 in 10.0 mi South 15.0 mph 19.6 mph N/A   Clear
2:55 PM 77.5 °F 52.7 °F 42% 30.01 in 10.0 mi South 15.0 mph 18.4 mph N/A   Clear
3:15 PM 77.2 °F 53.2 °F 43% 30.00 in 10.0 mi South 11.5 mph 17.3 mph N/A   Clear
3:35 PM 77.4 °F 53.8 °F 44% 29.99 in 10.0 mi South 12.7 mph 18.4 mph N/A   Clear
3:55 PM 76.3 °F 51.6 °F 42% 29.99 in 10.0 mi SSW 10.4 mph 17.3 mph N/A   Clear
4:15 PM 76.8 °F 51.8 °F 42% 29.98 in 10.0 mi SSW 15.0 mph 20.7 mph N/A   Clear
4:35 PM 77.9 °F 51.6 °F 40% 29.97 in 10.0 mi South 13.8 mph 20.7 mph N/A   Scattered Clouds
4:55 PM 78.3 °F 52.3 °F 40% 29.96 in 10.0 mi South 16.1 mph 20.7 mph N/A   Scattered Clouds
5:15 PM 78.1 °F 52.3 °F 41% 29.95 in 10.0 mi South 16.1 mph - N/A   Clear
5:35 PM 78.3 °F 53.1 °F 41% 29.94 in 10.0 mi SSW 13.8 mph 19.6 mph N/A   Clear
5:55 PM 76.6 °F 51.1 °F 41% 29.94 in 10.0 mi South 15.0 mph 19.6 mph N/A   Clear
6:15 PM 76.1 °F 50.4 °F 40% 29.93 in 10.0 mi SSW 13.8 mph - N/A   Clear
6:35 PM 76.5 °F 52.3 °F 43% 29.92 in 10.0 mi South 11.5 mph 16.1 mph N/A   Scattered Clouds
6:55 PM 76.6 °F 50.0 °F 39% 29.91 in 10.0 mi South 12.7 mph - N/A   Clear
7:15 PM 77.0 °F 51.3 °F 40% 29.90 in 10.0 mi South 10.4 mph - N/A   Clear
7:35 PM 75.4 °F 51.4 °F 43% 29.90 in 10.0 mi SSW 6.9 mph - N/A   Clear
7:55 PM 75.2 °F 50.5 °F 42% 29.90 in 10.0 mi South 11.5 mph - N/A   Clear
8:35 PM 72.9 °F 51.8 °F 47% 29.88 in 10.0 mi South 10.4 mph - N/A   Clear
8:55 PM 71.6 °F 51.6 °F 49% 29.88 in 10.0 mi South 8.1 mph - N/A   Clear
9:15 PM 69.8 °F 52.9 °F 55% 29.88 in 10.0 mi South 5.8 mph - N/A   Clear
9:35 PM 68.0 °F 53.6 °F 60% 29.87 in 10.0 mi SSE 6.9 mph - N/A   Clear
9:55 PM 68.0 °F 54.1 °F 61% 29.87 in 10.0 mi SSE 6.9 mph - N/A   Clear
10:15 PM 68.2 °F 54.5 °F 62% 29.88 in 10.0 mi South 6.9 mph - N/A   Clear
10:35 PM 68.7 °F 55.4 °F 62% 29.89 in 10.0 mi South 5.8 mph - N/A   Clear
10:55 PM 68.4 °F 56.1 °F 65% 29.90 in 10.0 mi SSW 5.8 mph - N/A   Clear
11:15 PM 69.3 °F 56.5 °F 64% 29.90 in 10.0 mi South 8.1 mph - N/A   Clear
11:35 PM 70.2 °F 56.7 °F 62% 29.89 in 10.0 mi SSW 8.1 mph - N/A   Mostly Cloudy
11:55 PM 69.6 °F 57.4 °F 65% 29.88 in 10.0 mi South 9.2 mph - N/A   Mostly Cloudy